This is the latest recevied weather packets stored in our database for station/object DL1GRJ-13. If no packets are shown the sender has not sent any weather packets the latest 10 day(s).
| Time | Temp. | Humidity | Pressure | Rain* | Wind** | Luminosity | Snow |
|---|---|---|---|---|---|---|---|
| 1777507235 | 5° C | 40% | 1023.3 hPa | - | - | - | - |
| 1777505435 | 5.56° C | 39% | 1023.3 hPa | - | - | - | - |
| 1777503635 | 6.11° C | 38% | 1023.4 hPa | - | - | - | - |
| 1777501835 | 6.67° C | 39% | 1023.3 hPa | - | - | - | - |
| 1777500035 | 6.67° C | 39% | 1023.2 hPa | - | - | - | - |
| 1777498235 | 7.22° C | 38% | 1023.2 hPa | - | - | - | - |
| 1777496435 | 8.33° C | 38% | 1023 hPa | - | - | - | - |
| 1777494635 | 8.89° C | 37% | 1022.8 hPa | - | - | - | - |
| 1777492834 | 9.44° C | 36% | 1022.6 hPa | - | - | - | - |
| 1777491034 | 10° C | 35% | 1022.3 hPa | - | - | - | - |
| 1777489234 | 11.11° C | 35% | 1022 hPa | - | - | - | - |
| 1777487434 | 12.78° C | 33% | 1021.7 hPa | - | - | - | - |
| 1777485634 | 15.56° C | 30% | 1021.3 hPa | - | - | - | - |
| 1777483833 | 17.78° C | 28% | 1021.1 hPa | - | - | - | - |
| 1777482033 | 18.89° C | 26% | 1020.9 hPa | - | - | - | - |
| 1777480233 | 21.11° C | 22% | 1020.8 hPa | - | - | - | - |
| 1777478432 | 20° C | 23% | 1020.7 hPa | - | - | - | - |
| 1777476632 | 21.11° C | 24% | 1020.7 hPa | - | - | - | - |
| 1777474832 | 20.56° C | 23% | 1020.5 hPa | - | - | - | - |
| 1777473032 | 20° C | 26% | 1020.6 hPa | - | - | - | - |
| 1777471232 | 20° C | 24% | 1020.7 hPa | - | - | - | - |
| 1777469432 | 21.11° C | 26% | 1020.6 hPa | - | - | - | - |
| 1777467632 | 20.56° C | 23% | 1020.6 hPa | - | - | - | - |
| 1777465832 | 21.11° C | 24% | 1020.7 hPa | - | - | - | - |
| 1777464031 | 21.11° C | 24% | 1020.6 hPa | - | - | - | - |
* Rain since midnight (hover to see other rain measurements)
** Current wind speed in m/s (hover to see current wind gust speed)